Location: Del Amo
(33.8464°N, 118.2104°W)
Time: 07:09:08
(UTC+00:00)

ARIANE 6 FM1 Upper Stage - Pass Details

Date: 21 August 2024
Orbit: 566 x 594 km, 62.0° (Epoch: 19 September)

Event Time Altitude Azimuth Distance (km) Brightness Sun altitude
Exits shadow 11:19:28 18° 148° (SSE) 1,425 4.7 -23.5°
Maximum altitude 11:21:11 23° 114° (ESE) 1,233 4.7 -23.2°
Drops below altitude 10° 11:24:37 10° 61° (ENE) 1,903 6.5 -22.6°
Sets 11:27:12 0° 47° (NE) 2,813 7.7 -22.1°
